Погода в Кильдишеве

Россия / Чувашская Республика     55°50′32″N   46°34′56″E
темп.,
°C
ветер,
м/с
пор.,
м/с
влажн.,
%
обл.,
%
осадки,
мм/ч
давл.,
гПа
погр.,
м
12 мая, ср
ср1200:00+14в399148 0.4 1027148
03:00+13всв46896 0.4 102781
06:00+14в378518 0.0 1027175
09:00+20в576432 0.0 1026484
12:00+23вюв564829 0.0 10261623
15:00+24юв584812 0.0 10252571
18:00+20вюв3766100 0.0 1024164
21:00+16юв367171 0.0 102580
13 мая, чт
чт1300:00+15юв356969 0.0 102589
03:00+14вюв367456 0.0 1025100
06:00+15вюв497954 0.0 1024251
09:00+16вюв5117461 0.0 1024336
12:00+22вюв7115799 0.0 10221009
15:00+19юв5971100 0.1 1022733
18:00+18вюв6148193 0.0 1020800
21:00+16юв5138416 0.1 1020303
14 мая, пт
пт1400:00+14ююв3118393 0.2 1020247
03:00+13ю34910 0.2 102052
06:00+15ююз2388100 0.0 1021118
09:00+20ююз237392 0.0 1021472
12:00+23ю2456100 0.0 10211288
15:00+24ююз365754 0.0 10201408
18:00+23ююв226960 0.6 101831
21:00+17ююв3577100 0.6 101856
15 мая, сб
сб1500:00+16ю4982100 0.0 1018136
03:00+15ююв3682100 0.0 101887
06:00+17ююв3878100 0.0 1018176
09:00+22ю5958100 0.0 1018430
12:00+25ю71247100 0.0 1017982
15:00+25ююз7124839 0.0 10171076
18:00+22ю612575 0.0 1016308
21:00+17ю413700 0.0 1016212
16 мая, вс
вс1600:00+16ю4146716 0.0 1015226
03:00+16ю5146087 0.0 1015268
06:00+17ю4137099 0.0 1015279
09:00+22ююз51157100 0.0 1015680
12:00+25ююз61054100 0.0 1015988
15:00+26ююз610530 0.0 10141427
18:00+22ююз4968100 0.0 1014212
21:00+18ююз357499 0.0 101470